Location: Azat
(46.0765°N, 1.7600°E)
Time: 14:06:56
(UTC+00:00)

Cosmos 2218 Rocket - Pass Details

Date: 09 April 2020
Orbit: 957 x 1005 km, 82.9° (Epoch: 27 May)

Event Time Altitude Azimuth Distance (km) Brightness Sun altitude
Rises 20:55:06 0° 348° (NNW) 3,667 7.8 -22.8°
Reaches altitude 10° 20:57:37 10° 346° (NNW) 2,722 7.1 -23.1°
Maximum altitude 21:03:47 66° 267° (W) 1,065 4.3 -23.9°
Enters shadow 21:07:05 29° 193° (SSW) 1,719 5.0 -24.3°
